UAE149 WIII-VCBI

Flight info

Callsign UAE149
Flight time N/A
Altitude 36000
Route RIMTI1C RIMTI M766 OBMAT/N0481F380 M766 PEBSA Z610 MTL DCT RUPOK RUPOK1A
Aircraft B77W/H-SDE1E2E3FGHIJ2J3J4J5M1RWXYZ/LB1D1

Departure

Time 2026-04-28 04:53
Airport Soekarno-Hatta International Airport (WIII)

Arrival

Time N/A
Airport Bandaranaike International Colombo Airport (VCBI)
Time Latitude Longitude Altitude Speed Heading
2026-04-28 04:16 -6.13246 106.65158 70 ft 0 kts 33°
2026-04-28 04:33 -6.13247 106.65158 43 ft 1 kts 33°
2026-04-28 04:33 -6.13253 106.65154 43 ft 1 kts 33°
2026-04-28 04:33 -6.13263 106.65147 40 ft 2 kts 33°
2026-04-28 04:34 -6.13283 106.65142 37 ft 4 kts 322°
2026-04-28 04:34 -6.13285 106.65143 37 ft 0 kts 314°
2026-04-28 04:40 -6.13265 106.65143 43 ft 0 kts 15°
2026-04-28 04:40 -6.13257 106.65155 42 ft 4 kts 64°
2026-04-28 04:40 -6.13261 106.65180 43 ft 5 kts 126°
2026-04-28 04:41 -6.13311 106.65207 43 ft 0 kts 158°
2026-04-28 04:47 -6.13317 106.65207 43 ft 5 kts 173°
2026-04-28 04:47 -6.13389 106.65225 43 ft 0 kts 158°
2026-04-28 04:47 -6.13431 106.65243 43 ft 4 kts 159°
2026-04-28 04:48 -6.13505 106.65274 43 ft 15 kts 157°
2026-04-28 04:48 -6.13587 106.65307 43 ft 1 kts 158°
2026-04-28 04:48 -6.13646 106.65319 43 ft 16 kts 185°
2026-04-28 04:48 -6.13695 106.65276 44 ft 4 kts 265°
2026-04-28 04:49 -6.13697 106.65219 44 ft 2 kts 245°
2026-04-28 04:50 -6.13705 106.65209 44 ft 8 kts 233°
2026-04-28 04:50 -6.13756 106.65123 44 ft 9 kts 244°
2026-04-28 04:50 -6.13802 106.65017 44 ft 24 kts 246°
2026-04-28 04:50 -6.13873 106.64844 44 ft 22 kts 250°
2026-04-28 04:51 -6.13931 106.64691 42 ft 22 kts 249°
2026-04-28 04:51 -6.13976 106.64576 44 ft 31 kts 248°
2026-04-28 04:51 -6.14044 106.64412 44 ft 25 kts 247°
2026-04-28 04:51 -6.14072 106.64344 44 ft 4 kts 247°
2026-04-28 04:52 -6.14130 106.64306 45 ft 0 kts 189°
2026-04-28 04:52 -6.14152 106.64309 45 ft 9 kts 166°
2026-04-28 04:52 -6.14217 106.64447 45 ft 26 kts 82°
2026-04-28 04:52 -6.14209 106.64473 45 ft 0 kts 67°
2026-04-28 04:53 -6.14196 106.64501 44 ft 25 kts 66°
2026-04-28 04:53 -6.14009 106.64966 44 ft 116 kts 68°
2026-04-28 04:53 -6.13411 106.66350 241 ft 189 kts 66°
2026-04-28 04:53 -6.13093 106.67154 991 ft 179 kts 69°
2026-04-28 04:54 -6.12636 106.68346 1797 ft 190 kts 69°
2026-04-28 04:54 -6.12123 106.69654 2156 ft 213 kts 69°
2026-04-28 04:54 -6.11551 106.71082 2683 ft 224 kts 69°
2026-04-28 04:54 -6.11187 106.72611 3312 ft 229 kts 94°
2026-04-28 04:55 -6.11665 106.74124 4065 ft 230 kts 123°
2026-04-28 04:55 -6.12770 106.75294 4789 ft 233 kts 142°
2026-04-28 04:55 -6.14223 106.76028 5462 ft 236 kts 162°
2026-04-28 04:55 -6.15829 106.76452 6089 ft 242 kts 173°
2026-04-28 04:56 -6.17497 106.76190 6721 ft 249 kts 205°
2026-04-28 04:56 -6.18885 106.75182 7338 ft 253 kts 224°
2026-04-28 04:56 -6.19794 106.73640 7885 ft 264 kts 256°
2026-04-28 04:56 -6.20046 106.71811 8446 ft 268 kts 263°
2026-04-28 04:57 -6.20246 106.69933 9116 ft 272 kts 263°
2026-04-28 04:57 -6.20479 106.68029 9626 ft 283 kts 259°
2026-04-28 04:57 -6.20884 106.66042 10059 ft 295 kts 256°
2026-04-28 04:57 -6.21337 106.64000 10683 ft 302 kts 256°
2026-04-28 04:58 -6.21788 106.61925 11414 ft 306 kts 257°
2026-04-28 04:58 -6.22232 106.59816 12246 ft 309 kts 257°
2026-04-28 04:58 -6.22673 106.57688 13113 ft 312 kts 257°
2026-04-28 04:58 -6.23115 106.55536 13913 ft 316 kts 257°
2026-04-28 04:59 -6.23207 106.53324 14584 ft 323 kts 282°
2026-04-28 04:59 -6.22356 106.51212 15125 ft 337 kts 306°
2026-04-28 04:59 -6.20806 106.49347 15299 ft 360 kts 314°
2026-04-28 04:59 -6.19038 106.47450 15492 ft 384 kts 314°
2026-04-28 05:00 -6.17144 106.45434 15696 ft 406 kts 314°
2026-04-28 05:00 -6.15214 106.43351 16182 ft 418 kts 313°
2026-04-28 05:00 -6.13233 106.41181 16812 ft 425 kts 313°
2026-04-28 05:00 -6.11235 106.38972 17549 ft 428 kts 313°
2026-04-28 05:01 -6.09224 106.36746 18276 ft 431 kts 313°
2026-04-28 05:01 -6.07200 106.34507 18914 ft 435 kts 313°
2026-04-28 05:01 -6.05148 106.32245 19529 ft 439 kts 313°
2026-04-28 05:01 -6.03078 106.29964 20133 ft 443 kts 313°
2026-04-28 05:02 -6.00996 106.27669 20731 ft 447 kts 313°
2026-04-28 05:02 -5.98900 106.25358 21317 ft 451 kts 312°
2026-04-28 05:02 -5.96781 106.23019 21898 ft 455 kts 312°
2026-04-28 05:02 -5.94646 106.20663 22450 ft 459 kts 312°
2026-04-28 05:03 -5.92486 106.18277 23035 ft 462 kts 312°
2026-04-28 05:03 -5.90309 106.15874 23549 ft 466 kts 312°
2026-04-28 05:03 -5.88121 106.13457 23875 ft 470 kts 312°
2026-04-28 05:03 -5.85940 106.11050 23863 ft 471 kts 312°
2026-04-28 05:04 -5.83737 106.08623 23868 ft 468 kts 312°
2026-04-28 05:04 -5.81546 106.06208 23867 ft 466 kts 312°
2026-04-28 05:04 -5.79365 106.03804 23867 ft 466 kts 312°
2026-04-28 05:04 -5.77181 106.01395 23869 ft 466 kts 312°
2026-04-28 05:05 -5.75082 105.99079 23861 ft 467 kts 312°
2026-04-28 05:05 -5.72897 105.96666 23862 ft 467 kts 312°
2026-04-28 05:05 -5.70713 105.94256 23869 ft 467 kts 312°
2026-04-28 05:05 -5.68526 105.91840 23867 ft 467 kts 312°
2026-04-28 05:06 -5.66337 105.89423 23869 ft 467 kts 312°
2026-04-28 05:06 -5.64144 105.87002 23866 ft 467 kts 312°
2026-04-28 05:06 -5.61959 105.84591 23866 ft 467 kts 312°
2026-04-28 05:06 -5.59768 105.82173 23865 ft 467 kts 312°
2026-04-28 05:07 -5.57611 105.79792 23867 ft 467 kts 312°
2026-04-28 05:07 -5.55426 105.77381 23868 ft 467 kts 312°
2026-04-28 05:07 -5.53237 105.74965 23867 ft 467 kts 312°
2026-04-28 05:07 -5.51049 105.72551 23949 ft 470 kts 312°
2026-04-28 05:08 -5.48840 105.70111 24373 ft 474 kts 312°
2026-04-28 05:08 -5.46615 105.67655 24828 ft 476 kts 312°
2026-04-28 05:08 -5.44384 105.65196 25333 ft 477 kts 313°
2026-04-28 05:08 -5.42268 105.62628 25731 ft 479 kts 303°
2026-04-28 05:09 -5.40823 105.59613 26064 ft 482 kts 290°
2026-04-28 05:09 -5.39694 105.56433 26441 ft 486 kts 289°
2026-04-28 05:09 -5.38583 105.53219 26873 ft 489 kts 289°
2026-04-28 05:09 -5.37445 105.49985 27314 ft 491 kts 290°
2026-04-28 05:10 -5.36276 105.46755 27745 ft 494 kts 291°
2026-04-28 05:10 -5.35076 105.43518 28150 ft 497 kts 291°
2026-04-28 05:10 -5.33852 105.40263 28548 ft 500 kts 291°
2026-04-28 05:10 -5.32614 105.36985 28933 ft 502 kts 291°
2026-04-28 05:11 -5.31391 105.33745 29301 ft 505 kts 291°
2026-04-28 05:11 -5.30145 105.30438 29660 ft 507 kts 291°
2026-04-28 05:11 -5.28895 105.27112 30003 ft 509 kts 292°
2026-04-28 05:11 -5.27643 105.23780 30310 ft 511 kts 292°
2026-04-28 05:12 -5.26387 105.20445 30565 ft 513 kts 292°
2026-04-28 05:12 -5.24992 105.17141 30799 ft 515 kts 296°
2026-04-28 05:12 -5.23444 105.13895 30973 ft 517 kts 297°
2026-04-28 05:12 -5.21856 105.10648 31199 ft 518 kts 297°
2026-04-28 05:13 -5.20264 105.07410 31553 ft 517 kts 297°
2026-04-28 05:13 -5.18682 105.04177 31920 ft 516 kts 297°
2026-04-28 05:13 -5.17112 105.00946 32272 ft 515 kts 297°
2026-04-28 05:13 -5.15609 104.97833 32595 ft 515 kts 297°
2026-04-28 05:14 -5.14051 104.94596 32899 ft 515 kts 297°
2026-04-28 05:14 -5.12491 104.91347 33255 ft 514 kts 297°
2026-04-28 05:14 -5.10962 104.88164 33647 ft 512 kts 297°
2026-04-28 05:14 -5.09417 104.84949 33983 ft 512 kts 297°
2026-04-28 05:15 -5.07872 104.81735 34263 ft 512 kts 297°
2026-04-28 05:15 -5.06324 104.78519 34557 ft 511 kts 297°
2026-04-28 05:15 -5.04780 104.75309 34854 ft 510 kts 297°
2026-04-28 05:15 -5.03238 104.72106 35152 ft 510 kts 297°
2026-04-28 05:16 -5.01697 104.68904 35454 ft 509 kts 297°
2026-04-28 05:16 -5.00161 104.65713 35736 ft 508 kts 297°
2026-04-28 05:16 -4.98625 104.62522 35821 ft 512 kts 297°
2026-04-28 05:17 -4.93984 104.52878 35876 ft 508 kts 297°
2026-04-28 05:17 -4.90935 104.46552 35894 ft 506 kts 297°
2026-04-28 05:18 -4.87834 104.40217 35895 ft 505 kts 297°
2026-04-28 05:18 -4.84715 104.33889 35892 ft 506 kts 297°
2026-04-28 05:19 -4.81604 104.27557 35889 ft 506 kts 297°
2026-04-28 05:19 -4.78491 104.21212 35891 ft 507 kts 297°
2026-04-28 05:20 -4.75375 104.14857 35887 ft 508 kts 297°
2026-04-28 05:20 -4.72260 104.08505 35886 ft 508 kts 297°
2026-04-28 05:21 -4.69138 104.02144 35885 ft 508 kts 297°
2026-04-28 05:21 -4.66099 103.95952 35882 ft 508 kts 297°
2026-04-28 05:22 -4.62977 103.89593 35892 ft 508 kts 297°
2026-04-28 05:22 -4.59859 103.83246 35894 ft 507 kts 297°
2026-04-28 05:23 -4.56743 103.76903 35899 ft 506 kts 297°
2026-04-28 05:23 -4.53632 103.70571 35900 ft 506 kts 297°
2026-04-28 05:24 -4.50522 103.64245 35894 ft 505 kts 297°
2026-04-28 05:24 -4.47420 103.57934 35901 ft 504 kts 297°
2026-04-28 05:25 -4.44335 103.51662 35910 ft 504 kts 297°
2026-04-28 05:25 -4.41237 103.45364 35915 ft 504 kts 297°
2026-04-28 05:26 -4.38134 103.39058 35911 ft 504 kts 297°
2026-04-28 05:26 -4.35032 103.32754 35903 ft 505 kts 297°
2026-04-28 05:27 -4.31926 103.26444 35897 ft 505 kts 297°
2026-04-28 05:27 -4.28835 103.20166 35891 ft 505 kts 297°
2026-04-28 05:28 -4.25722 103.13846 35908 ft 505 kts 297°
2026-04-28 05:28 -4.22609 103.07526 35894 ft 505 kts 297°
2026-04-28 05:29 -4.19501 103.01218 35877 ft 505 kts 297°
2026-04-28 05:29 -4.16455 102.95039 35882 ft 504 kts 297°
2026-04-28 05:30 -4.13349 102.88737 35875 ft 504 kts 297°
2026-04-28 05:30 -4.10241 102.82433 35873 ft 504 kts 297°
2026-04-28 05:31 -4.07133 102.76132 35855 ft 505 kts 297°
2026-04-28 05:31 -4.04024 102.69828 35858 ft 505 kts 297°
2026-04-28 05:32 -4.00910 102.63517 35866 ft 505 kts 297°
2026-04-28 05:32 -3.97825 102.57263 35852 ft 505 kts 297°
2026-04-28 05:33 -3.94716 102.50963 35854 ft 504 kts 297°
2026-04-28 05:33 -3.91608 102.44664 35837 ft 504 kts 297°
2026-04-28 05:34 -3.88503 102.38369 35838 ft 504 kts 297°
2026-04-28 05:34 -3.85391 102.32073 35836 ft 504 kts 297°
2026-04-28 05:35 -3.82269 102.25791 35835 ft 504 kts 297°
2026-04-28 05:35 -3.79146 102.19508 35836 ft 504 kts 297°
2026-04-28 05:36 -3.76025 102.13217 35829 ft 504 kts 297°
2026-04-28 05:36 -3.73438 102.08000 35833 ft 504 kts 297°
2026-04-28 05:37 -3.69812 102.00687 35829 ft 504 kts 297°
2026-04-28 05:37 -3.66732 101.94479 35827 ft 504 kts 297°
2026-04-28 05:38 -3.63603 101.88176 35830 ft 504 kts 297°
2026-04-28 05:38 -3.60480 101.81882 35825 ft 505 kts 297°
2026-04-28 05:39 -3.57882 101.76650 35828 ft 505 kts 297°
2026-04-28 05:39 -3.54757 101.70357 35830 ft 505 kts 297°
2026-04-28 05:40 -3.51628 101.64056 35831 ft 504 kts 297°
2026-04-28 05:40 -3.48507 101.57773 35829 ft 504 kts 297°
2026-04-28 05:41 -3.45389 101.51497 35830 ft 503 kts 297°
2026-04-28 05:41 -3.42297 101.45274 35827 ft 502 kts 297°
2026-04-28 05:42 -3.39190 101.39023 35828 ft 501 kts 297°
2026-04-28 05:42 -3.36083 101.32773 35828 ft 501 kts 297°
2026-04-28 05:43 -3.32972 101.26517 35830 ft 501 kts 297°
2026-04-28 05:43 -3.29864 101.20268 35832 ft 501 kts 297°
2026-04-28 05:44 -3.26754 101.14016 35832 ft 501 kts 297°
2026-04-28 05:44 -3.23664 101.07802 35827 ft 502 kts 297°
2026-04-28 05:45 -3.20546 101.01536 35828 ft 502 kts 297°
2026-04-28 05:45 -3.17487 100.95392 35832 ft 501 kts 297°
2026-04-28 05:46 -3.14397 100.89182 35824 ft 502 kts 297°
2026-04-28 05:46 -3.11265 100.82893 35834 ft 502 kts 297°
2026-04-28 05:47 -3.08168 100.76672 35830 ft 502 kts 297°
2026-04-28 05:47 -3.05050 100.70412 35834 ft 502 kts 297°
2026-04-28 05:48 -3.01949 100.64186 35833 ft 502 kts 297°
2026-04-28 05:48 -2.98847 100.57960 35828 ft 502 kts 297°
2026-04-28 05:49 -2.95731 100.51705 35831 ft 502 kts 297°
2026-04-28 05:49 -2.92611 100.45446 35829 ft 502 kts 297°
2026-04-28 05:50 -2.89497 100.39197 35835 ft 501 kts 297°
2026-04-28 05:50 -2.86383 100.32951 35839 ft 501 kts 297°
2026-04-28 05:51 -2.83267 100.26701 35834 ft 501 kts 297°
2026-04-28 05:51 -2.80172 100.20496 35836 ft 502 kts 297°
2026-04-28 05:52 -2.77056 100.14247 35838 ft 501 kts 297°
2026-04-28 05:52 -2.73939 100.07998 35831 ft 502 kts 297°
2026-04-28 05:53 -2.70821 100.01748 35832 ft 502 kts 297°
2026-04-28 05:53 -2.67747 99.95588 35834 ft 501 kts 297°
2026-04-28 05:54 -2.64650 99.89380 35829 ft 501 kts 297°
2026-04-28 05:54 -2.61539 99.83146 35831 ft 501 kts 297°
2026-04-28 05:55 -2.58424 99.76906 35830 ft 501 kts 297°
2026-04-28 05:55 -2.55308 99.70660 35830 ft 501 kts 297°
2026-04-28 05:56 -2.52194 99.64418 35831 ft 501 kts 297°
2026-04-28 05:56 -2.49096 99.58207 35829 ft 502 kts 297°
2026-04-28 05:57 -2.46006 99.51937 35829 ft 502 kts 296°
2026-04-28 05:57 -2.43027 99.45626 35831 ft 502 kts 296°
2026-04-28 05:58 -2.40066 99.39300 35832 ft 502 kts 296°
2026-04-28 05:58 -2.37090 99.32976 35838 ft 502 kts 296°
2026-04-28 05:59 -2.34109 99.26666 35837 ft 502 kts 296°
2026-04-28 05:59 -2.31148 99.20404 35839 ft 502 kts 296°
2026-04-28 06:00 -2.28166 99.14099 35836 ft 502 kts 296°
2026-04-28 06:00 -2.25184 99.07792 35835 ft 502 kts 296°
2026-04-28 06:01 -2.22198 99.01478 35838 ft 502 kts 296°
2026-04-28 06:01 -2.19250 98.95243 35835 ft 502 kts 296°
2026-04-28 06:02 -2.16261 98.88923 35839 ft 502 kts 296°
2026-04-28 06:02 -2.13272 98.82605 35838 ft 503 kts 296°
2026-04-28 06:03 -2.10281 98.76281 35839 ft 503 kts 296°
2026-04-28 06:03 -2.07310 98.70002 35837 ft 503 kts 296°
2026-04-28 06:04 -2.04318 98.63681 35839 ft 503 kts 296°
2026-04-28 06:04 -2.01324 98.57354 35839 ft 503 kts 296°
2026-04-28 06:05 -1.98337 98.51042 35835 ft 503 kts 296°
2026-04-28 06:05 -1.95344 98.44720 35839 ft 503 kts 296°
2026-04-28 06:06 -1.92370 98.38438 35838 ft 503 kts 296°
2026-04-28 06:06 -1.89373 98.32106 35836 ft 503 kts 296°
2026-04-28 06:07 -1.86375 98.25776 35839 ft 504 kts 296°
2026-04-28 06:07 -1.83377 98.19444 35838 ft 504 kts 296°
2026-04-28 06:08 -1.80373 98.13101 35839 ft 504 kts 296°
2026-04-28 06:08 -1.77370 98.06760 35838 ft 505 kts 296°
2026-04-28 06:09 -1.74368 98.00423 35838 ft 505 kts 296°
2026-04-28 06:09 -1.71402 97.94159 35837 ft 505 kts 296°
2026-04-28 06:10 -1.68394 97.87808 35842 ft 505 kts 296°
2026-04-28 06:10 -1.65410 97.81508 35841 ft 505 kts 296°
2026-04-28 06:11 -1.62401 97.75149 35838 ft 505 kts 296°
2026-04-28 06:11 -1.59394 97.68801 35838 ft 505 kts 296°
2026-04-28 06:12 -1.56336 97.62486 35838 ft 505 kts 297°
2026-04-28 06:12 -1.53237 97.56185 35836 ft 505 kts 297°
2026-04-28 06:13 -1.50165 97.49920 35839 ft 505 kts 297°
2026-04-28 06:13 -1.47081 97.43610 35839 ft 505 kts 297°
2026-04-28 06:14 -1.43998 97.37291 35839 ft 506 kts 297°
2026-04-28 06:14 -1.40910 97.30963 35838 ft 506 kts 297°
2026-04-28 06:15 -1.37825 97.24642 35841 ft 506 kts 297°
2026-04-28 06:15 -1.34737 97.18317 35841 ft 506 kts 297°
2026-04-28 06:16 -1.31646 97.11986 35842 ft 506 kts 297°
2026-04-28 06:16 -1.28575 97.05697 35841 ft 506 kts 297°
2026-04-28 06:17 -1.25538 96.99478 35841 ft 506 kts 297°
2026-04-28 06:18 -1.20907 96.89996 35839 ft 506 kts 297°
2026-04-28 06:18 -1.17817 96.83670 35841 ft 506 kts 297°
2026-04-28 06:19 -1.14730 96.77350 35843 ft 506 kts 297°
2026-04-28 06:19 -1.11645 96.71035 35840 ft 506 kts 297°
2026-04-28 06:20 -1.08572 96.64743 35842 ft 506 kts 297°
2026-04-28 06:20 -1.05484 96.58422 35841 ft 506 kts 297°
2026-04-28 06:21 -1.02389 96.52088 35843 ft 506 kts 297°
2026-04-28 06:21 -0.99303 96.45772 35840 ft 507 kts 297°
2026-04-28 06:22 -0.96211 96.39444 35841 ft 507 kts 297°
2026-04-28 06:22 -0.93113 96.33104 35841 ft 507 kts 297°
2026-04-28 06:23 -0.90018 96.26772 35843 ft 507 kts 297°
2026-04-28 06:23 -0.86943 96.20478 35841 ft 507 kts 297°
2026-04-28 06:24 -0.83844 96.14138 35840 ft 507 kts 297°
2026-04-28 06:24 -0.80750 96.07807 35846 ft 507 kts 297°
2026-04-28 06:25 -0.77653 96.01471 35843 ft 507 kts 297°
2026-04-28 06:25 -0.75117 95.96283 35846 ft 507 kts 297°
2026-04-28 06:26 -0.72017 95.89941 35845 ft 507 kts 297°
2026-04-28 06:26 -0.68937 95.83640 35844 ft 507 kts 297°
2026-04-28 06:27 -0.65845 95.77314 35840 ft 507 kts 297°
2026-04-28 06:27 -0.62749 95.70980 35843 ft 507 kts 297°
2026-04-28 06:28 -0.59650 95.64642 35842 ft 507 kts 297°
2026-04-28 06:28 -0.56553 95.58307 35841 ft 507 kts 297°
2026-04-28 06:29 -0.53455 95.51969 35840 ft 508 kts 297°
2026-04-28 06:29 -0.50351 95.45620 35844 ft 508 kts 297°
2026-04-28 06:30 -0.47272 95.39321 35842 ft 508 kts 297°
2026-04-28 06:30 -0.44172 95.32980 35848 ft 508 kts 297°
2026-04-28 06:31 -0.41069 95.26631 35843 ft 508 kts 297°
2026-04-28 06:31 -0.37967 95.20282 35841 ft 509 kts 297°
2026-04-28 06:32 -0.34862 95.13922 35841 ft 509 kts 297°
2026-04-28 06:32 -0.31754 95.07568 35841 ft 509 kts 297°
2026-04-28 06:33 -0.28638 95.01212 35842 ft 509 kts 297°
2026-04-28 06:33 -0.25584 94.94975 35844 ft 509 kts 297°
2026-04-28 06:34 -0.22473 94.88609 35841 ft 509 kts 297°
2026-04-28 06:34 -0.19363 94.82246 35838 ft 509 kts 297°
2026-04-28 06:35 -0.16276 94.75930 35837 ft 509 kts 297°
2026-04-28 06:35 -0.13160 94.69553 35842 ft 509 kts 297°
2026-04-28 06:36 -0.10052 94.63195 35841 ft 509 kts 297°
2026-04-28 06:36 -0.06944 94.56837 35841 ft 509 kts 297°
2026-04-28 06:37 -0.03854 94.50513 35841 ft 509 kts 297°
2026-04-28 06:37 -0.00747 94.44158 35841 ft 509 kts 297°
2026-04-28 06:38 0.02356 94.37809 35840 ft 509 kts 297°
2026-04-28 06:38 0.05466 94.31446 35841 ft 509 kts 297°
2026-04-28 06:39 0.08575 94.25085 35843 ft 509 kts 297°
2026-04-28 06:39 0.11682 94.18728 35839 ft 509 kts 297°
2026-04-28 06:40 0.14793 94.12362 35842 ft 509 kts 297°
2026-04-28 06:40 0.17901 94.06001 35842 ft 510 kts 297°
2026-04-28 06:41 0.20970 93.99721 35842 ft 510 kts 297°
2026-04-28 06:41 0.24084 93.93347 35843 ft 510 kts 297°
2026-04-28 06:42 0.27197 93.86976 35842 ft 510 kts 297°
2026-04-28 06:42 0.30288 93.80646 35848 ft 510 kts 297°
2026-04-28 06:43 0.33404 93.74262 35840 ft 511 kts 297°
2026-04-28 06:43 0.36522 93.67880 35842 ft 511 kts 297°
2026-04-28 06:44 0.39638 93.61505 35842 ft 511 kts 297°
2026-04-28 06:44 0.42761 93.55112 35841 ft 511 kts 297°
2026-04-28 06:45 0.45869 93.48737 35839 ft 511 kts 297°
2026-04-28 06:45 0.48964 93.42386 35842 ft 511 kts 297°
2026-04-28 06:46 0.52078 93.35995 35841 ft 511 kts 297°
2026-04-28 06:46 0.55188 93.29612 35841 ft 511 kts 297°
2026-04-28 06:47 0.58303 93.23220 35843 ft 511 kts 297°
2026-04-28 06:47 0.61396 93.16872 35840 ft 511 kts 297°
2026-04-28 06:48 0.64508 93.10485 35840 ft 511 kts 297°
2026-04-28 06:48 0.67617 93.04104 35846 ft 511 kts 297°
2026-04-28 06:49 0.70687 92.97804 35845 ft 511 kts 297°
2026-04-28 06:49 0.73797 92.91420 35844 ft 511 kts 297°
2026-04-28 06:50 0.76891 92.85071 35843 ft 511 kts 297°
2026-04-28 06:50 0.80000 92.78688 35845 ft 511 kts 297°
2026-04-28 06:51 0.83111 92.72301 35842 ft 511 kts 297°
2026-04-28 06:51 0.86226 92.65906 35840 ft 511 kts 297°
2026-04-28 06:52 0.89340 92.59513 35843 ft 511 kts 297°
2026-04-28 06:52 0.92454 92.53119 35841 ft 512 kts 297°
2026-04-28 06:53 0.95569 92.46722 35841 ft 512 kts 297°
2026-04-28 06:53 0.98684 92.40324 35844 ft 511 kts 297°
2026-04-28 06:54 1.01774 92.33978 35844 ft 511 kts 297°
2026-04-28 06:54 1.04884 92.27591 35844 ft 511 kts 297°
2026-04-28 06:55 1.07995 92.21198 35843 ft 511 kts 297°
2026-04-28 06:55 1.11102 92.14813 35844 ft 511 kts 297°
2026-04-28 06:56 1.14209 92.08425 35846 ft 511 kts 297°
2026-04-28 06:56 1.17321 92.02025 35843 ft 511 kts 297°
2026-04-28 06:57 1.20388 91.95777 35843 ft 511 kts 298°
2026-04-28 06:57 1.23568 91.89417 35845 ft 511 kts 298°
2026-04-28 06:58 1.26743 91.83066 35848 ft 511 kts 298°
2026-04-28 06:58 1.29913 91.76701 35846 ft 511 kts 298°
2026-04-28 06:59 1.33078 91.70337 35847 ft 511 kts 298°
2026-04-28 06:59 1.36243 91.63968 35846 ft 511 kts 298°
2026-04-28 07:00 1.39409 91.57600 35845 ft 511 kts 298°
2026-04-28 07:00 1.42557 91.51267 35847 ft 511 kts 298°
2026-04-28 07:01 1.45720 91.44905 35846 ft 511 kts 298°
2026-04-28 07:01 1.48883 91.38542 35843 ft 510 kts 298°
2026-04-28 07:02 1.52041 91.32188 35844 ft 510 kts 298°
2026-04-28 07:02 1.55199 91.25832 35846 ft 510 kts 298°
2026-04-28 07:03 1.58336 91.19521 35847 ft 510 kts 298°
2026-04-28 07:03 1.61488 91.13177 35848 ft 510 kts 298°
2026-04-28 07:04 1.64638 91.06836 35849 ft 509 kts 298°
2026-04-28 07:04 1.67787 91.00497 35849 ft 509 kts 298°
2026-04-28 07:05 1.70889 90.94252 35849 ft 509 kts 298°
2026-04-28 07:05 1.74038 90.87913 35849 ft 509 kts 298°
2026-04-28 07:06 1.77186 90.81573 35849 ft 509 kts 298°
2026-04-28 07:06 1.80313 90.75278 35849 ft 509 kts 298°
2026-04-28 07:07 1.83456 90.68947 35849 ft 508 kts 298°
2026-04-28 07:07 1.86599 90.62616 35849 ft 508 kts 298°
2026-04-28 07:08 1.89734 90.56299 35849 ft 508 kts 298°
2026-04-28 07:08 1.92875 90.49972 35850 ft 507 kts 298°
2026-04-28 07:09 1.96013 90.43650 35851 ft 507 kts 298°
2026-04-28 07:09 1.99147 90.37333 35849 ft 507 kts 297°
2026-04-28 07:10 2.02276 90.31028 35853 ft 506 kts 297°
2026-04-28 07:10 2.05384 90.24761 35852 ft 506 kts 297°
2026-04-28 07:11 2.08510 90.18460 35850 ft 506 kts 297°
2026-04-28 07:11 2.11639 90.12149 35850 ft 506 kts 297°
2026-04-28 07:12 2.14766 90.05842 35851 ft 506 kts 297°
2026-04-28 07:12 2.17850 89.99623 35850 ft 506 kts 297°
2026-04-28 07:13 2.20956 89.93353 35849 ft 506 kts 297°
2026-04-28 07:13 2.24082 89.87044 35850 ft 506 kts 297°
2026-04-28 07:14 2.27203 89.80737 35849 ft 506 kts 297°
2026-04-28 07:14 2.30335 89.74421 35851 ft 506 kts 297°
2026-04-28 07:15 2.33447 89.68152 35848 ft 506 kts 297°
2026-04-28 07:15 2.36062 89.62875 35849 ft 505 kts 297°
2026-04-28 07:16 2.39181 89.56573 35851 ft 505 kts 297°
2026-04-28 07:16 2.42279 89.50310 35848 ft 505 kts 297°
2026-04-28 07:17 2.45394 89.44012 35851 ft 505 kts 297°
2026-04-28 07:17 2.48510 89.37711 35849 ft 505 kts 297°
2026-04-28 07:18 2.51624 89.31414 35848 ft 505 kts 297°
2026-04-28 07:18 2.54737 89.25118 35850 ft 505 kts 297°
2026-04-28 07:19 2.57852 89.18816 35848 ft 505 kts 297°
2026-04-28 07:19 2.60948 89.12552 35850 ft 505 kts 297°
2026-04-28 07:20 2.64063 89.06250 35849 ft 505 kts 297°
2026-04-28 07:20 2.67166 88.99968 35850 ft 505 kts 297°
2026-04-28 07:21 2.70244 88.93740 35850 ft 505 kts 297°
2026-04-28 07:21 2.73356 88.87438 35853 ft 505 kts 297°
2026-04-28 07:22 2.78026 88.77981 35852 ft 506 kts 297°
2026-04-28 07:22 2.81144 88.71663 35853 ft 506 kts 297°
2026-04-28 07:23 2.84240 88.65389 35852 ft 506 kts 297°
2026-04-28 07:23 2.87356 88.59074 35852 ft 507 kts 297°
2026-04-28 07:24 2.90475 88.52745 35852 ft 507 kts 297°
2026-04-28 07:24 2.93597 88.46416 35852 ft 507 kts 297°
2026-04-28 07:25 2.96839 88.40164 35852 ft 506 kts 298°
2026-04-28 07:25 3.00159 88.33956 35851 ft 506 kts 298°
2026-04-28 07:26 3.03459 88.27744 35852 ft 506 kts 298°
2026-04-28 07:26 3.06745 88.21510 35852 ft 505 kts 298°
2026-04-28 07:27 3.09999 88.15322 35849 ft 505 kts 298°
2026-04-28 07:27 3.13279 88.09084 35849 ft 505 kts 298°
2026-04-28 07:28 3.16555 88.02858 35850 ft 505 kts 298°
2026-04-28 07:28 3.19787 87.96713 35848 ft 506 kts 298°
2026-04-28 07:29 3.23063 87.90481 35851 ft 506 kts 298°
2026-04-28 07:29 3.26317 87.84289 35848 ft 506 kts 298°
2026-04-28 07:30 3.29590 87.78057 35849 ft 506 kts 298°
2026-04-28 07:30 3.32845 87.71816 35847 ft 506 kts 297°
2026-04-28 07:31 3.35992 87.65519 35851 ft 506 kts 297°
2026-04-28 07:31 3.39106 87.59212 35848 ft 506 kts 297°
2026-04-28 07:32 3.42231 87.52905 35850 ft 506 kts 297°
2026-04-28 07:32 3.45366 87.46603 35847 ft 505 kts 297°
2026-04-28 07:33 3.48484 87.40341 35849 ft 505 kts 297°
2026-04-28 07:33 3.51619 87.34045 35848 ft 505 kts 297°
2026-04-28 07:34 3.54754 87.27746 35856 ft 505 kts 297°
2026-04-28 07:34 3.57888 87.21446 35851 ft 505 kts 296°
2026-04-28 07:35 3.61015 87.15158 35844 ft 504 kts 296°
2026-04-28 07:35 3.64132 87.08890 35845 ft 504 kts 297°
2026-04-28 07:36 3.67255 87.02607 35848 ft 505 kts 297°
2026-04-28 07:36 3.70348 86.96386 35852 ft 505 kts 297°
2026-04-28 07:37 3.73484 86.90075 35844 ft 506 kts 296°
2026-04-28 07:37 3.76617 86.83769 35852 ft 506 kts 296°
2026-04-28 07:38 3.79751 86.77459 35842 ft 506 kts 296°
2026-04-28 07:38 3.82884 86.71152 35848 ft 506 kts 297°
2026-04-28 07:39 3.86020 86.64837 35852 ft 506 kts 297°
2026-04-28 07:39 3.89156 86.58519 35852 ft 506 kts 297°
2026-04-28 07:40 3.92270 86.52245 35851 ft 506 kts 297°
2026-04-28 07:40 3.95398 86.45941 35849 ft 505 kts 297°
2026-04-28 07:41 3.98525 86.39636 35850 ft 504 kts 297°
2026-04-28 07:41 4.01645 86.33347 35845 ft 505 kts 297°
2026-04-28 07:42 4.04772 86.27040 35855 ft 505 kts 296°
2026-04-28 07:42 4.07901 86.20728 35848 ft 505 kts 296°
2026-04-28 07:43 4.11023 86.14429 35847 ft 505 kts 297°
2026-04-28 07:43 4.14150 86.08118 35847 ft 505 kts 297°
2026-04-28 07:44 4.17271 86.01818 35848 ft 505 kts 297°
2026-04-28 07:44 4.20318 85.95666 35850 ft 505 kts 297°
2026-04-28 07:45 4.23440 85.89359 35848 ft 505 kts 297°
2026-04-28 07:45 4.26564 85.83050 35852 ft 505 kts 297°
2026-04-28 07:46 4.29682 85.76750 35843 ft 505 kts 297°
2026-04-28 07:46 4.32801 85.70446 35848 ft 505 kts 297°
2026-04-28 07:47 4.35921 85.64138 35848 ft 505 kts 297°
2026-04-28 07:47 4.39039 85.57832 35848 ft 505 kts 297°
2026-04-28 07:48 4.42162 85.51516 35848 ft 505 kts 296°
2026-04-28 07:48 4.45277 85.45214 35844 ft 505 kts 297°
2026-04-28 07:49 4.48395 85.38904 35842 ft 505 kts 296°
2026-04-28 07:49 4.51512 85.32594 35843 ft 506 kts 296°
2026-04-28 07:50 4.54608 85.26326 35851 ft 506 kts 296°
2026-04-28 07:50 4.57733 85.19997 35851 ft 505 kts 296°
2026-04-28 07:51 4.60851 85.13681 35847 ft 505 kts 296°
2026-04-28 07:51 4.63969 85.07362 35848 ft 504 kts 296°
2026-04-28 07:52 4.67085 85.01047 35842 ft 504 kts 297°
2026-04-28 07:52 4.70143 84.94846 35854 ft 504 kts 297°
2026-04-28 07:53 4.73231 84.88583 35844 ft 505 kts 297°
2026-04-28 07:53 4.76341 84.82274 35846 ft 504 kts 297°
2026-04-28 07:54 4.79447 84.75971 35845 ft 504 kts 297°
2026-04-28 07:54 4.82557 84.69659 35844 ft 505 kts 297°
2026-04-28 07:55 4.85670 84.63340 35848 ft 505 kts 297°
2026-04-28 07:55 4.88781 84.57021 35845 ft 505 kts 297°
2026-04-28 07:56 4.91872 84.50742 35855 ft 505 kts 297°
2026-04-28 07:56 4.94980 84.44426 35851 ft 505 kts 297°
2026-04-28 07:57 4.98082 84.38118 35847 ft 504 kts 297°
2026-04-28 07:57 5.01186 84.31807 35856 ft 504 kts 297°
2026-04-28 07:58 5.04289 84.25493 35846 ft 504 kts 297°
2026-04-28 07:58 5.07387 84.19188 35851 ft 504 kts 297°
2026-04-28 07:59 5.10465 84.12920 35848 ft 504 kts 297°
2026-04-28 07:59 5.13561 84.06611 35851 ft 504 kts 297°
2026-04-28 08:00 5.16659 84.00298 35852 ft 504 kts 297°
2026-04-28 08:00 5.19662 83.94070 35851 ft 505 kts 296°
2026-04-28 08:01 5.22168 83.88781 35856 ft 505 kts 296°
2026-04-28 08:01 5.25175 83.82420 35845 ft 505 kts 296°
2026-04-28 08:02 5.28700 83.74982 35847 ft 505 kts 296°
2026-04-28 08:02 5.31210 83.69695 35846 ft 505 kts 296°
2026-04-28 08:03 5.34231 83.63330 35848 ft 505 kts 296°
2026-04-28 08:03 5.37249 83.56969 35848 ft 504 kts 296°
2026-04-28 08:04 5.40265 83.50608 35844 ft 504 kts 296°
2026-04-28 08:04 5.43258 83.44293 35840 ft 505 kts 296°
2026-04-28 08:05 5.46274 83.37929 35848 ft 504 kts 296°
2026-04-28 08:05 5.49291 83.31561 35845 ft 504 kts 296°
2026-04-28 08:06 5.52304 83.25198 35841 ft 504 kts 296°
2026-04-28 08:06 5.55314 83.18839 35843 ft 504 kts 296°
2026-04-28 08:07 5.58322 83.12483 35840 ft 505 kts 296°
2026-04-28 08:07 5.61336 83.06114 35847 ft 505 kts 296°
2026-04-28 08:08 5.64288 82.99872 35539 ft 493 kts 296°
2026-04-28 08:08 5.65715 82.96855 34956 ft 490 kts 296°
2026-04-28 08:08 5.67188 82.93739 33951 ft 497 kts 295°
2026-04-28 08:09 5.68686 82.90571 32711 ft 506 kts 295°
2026-04-28 08:09 5.70205 82.87354 31464 ft 514 kts 295°
2026-04-28 08:09 5.71746 82.84087 30396 ft 519 kts 296°
2026-04-28 08:09 5.73290 82.80816 29587 ft 516 kts 296°
2026-04-28 08:10 5.74818 82.77580 28937 ft 508 kts 296°
2026-04-28 08:10 5.76311 82.74418 28454 ft 497 kts 296°
2026-04-28 08:10 5.77779 82.71311 27907 ft 488 kts 296°
2026-04-28 08:10 5.79227 82.68245 27220 ft 484 kts 296°
2026-04-28 08:11 5.80663 82.65204 26487 ft 481 kts 296°
2026-04-28 08:11 5.82093 82.62174 25769 ft 478 kts 296°
2026-04-28 08:11 5.83511 82.59168 25127 ft 474 kts 296°
2026-04-28 08:11 5.84917 82.56188 24530 ft 470 kts 296°
2026-04-28 08:12 5.86312 82.53230 23939 ft 466 kts 296°
2026-04-28 08:12 5.87696 82.50295 23342 ft 463 kts 297°
2026-04-28 08:12 5.89071 82.47379 22669 ft 459 kts 296°
2026-04-28 08:12 5.90432 82.44494 22030 ft 454 kts 296°
2026-04-28 08:13 5.91776 82.41642 21437 ft 450 kts 296°
2026-04-28 08:13 5.93109 82.38815 20848 ft 445 kts 296°
2026-04-28 08:13 5.94413 82.36046 20244 ft 443 kts 296°
2026-04-28 08:13 5.95727 82.33259 19671 ft 439 kts 296°
2026-04-28 08:14 5.97025 82.30503 19121 ft 435 kts 296°
2026-04-28 08:14 5.98314 82.27766 18603 ft 430 kts 296°
2026-04-28 08:14 5.99587 82.25063 18082 ft 427 kts 296°
2026-04-28 08:14 6.00850 82.22380 17481 ft 423 kts 296°
2026-04-28 08:15 6.02100 82.19725 16910 ft 419 kts 296°
2026-04-28 08:15 6.03339 82.17092 16345 ft 415 kts 296°
2026-04-28 08:15 6.04566 82.14484 15791 ft 411 kts 295°
2026-04-28 08:15 6.05782 82.11899 15247 ft 408 kts 295°
2026-04-28 08:16 6.06989 82.09332 14697 ft 405 kts 295°
2026-04-28 08:16 6.08184 82.06787 14209 ft 400 kts 295°
2026-04-28 08:16 6.09363 82.04278 13759 ft 395 kts 295°
2026-04-28 08:16 6.10519 82.01818 13207 ft 392 kts 295°
2026-04-28 08:17 6.11641 81.99434 12616 ft 391 kts 295°
2026-04-28 08:17 6.12752 81.96958 12099 ft 386 kts 290°
2026-04-28 08:17 6.13597 81.94395 11905 ft 389 kts 284°
2026-04-28 08:17 6.14186 81.91740 11842 ft 388 kts 281°
2026-04-28 08:18 6.14736 81.89097 11831 ft 386 kts 281°
2026-04-28 08:18 6.15281 81.86459 11830 ft 384 kts 281°
2026-04-28 08:18 6.15825 81.83831 11825 ft 384 kts 281°
2026-04-28 08:18 6.16373 81.81198 11831 ft 386 kts 281°
2026-04-28 08:19 6.16926 81.78553 11831 ft 386 kts 281°
2026-04-28 08:19 6.17481 81.75911 11823 ft 384 kts 281°
2026-04-28 08:19 6.18024 81.73335 11762 ft 369 kts 281°
2026-04-28 08:19 6.18547 81.70863 11662 ft 354 kts 281°
2026-04-28 08:20 6.19049 81.68484 11582 ft 341 kts 281°
2026-04-28 08:20 6.19527 81.66223 11499 ft 328 kts 281°
2026-04-28 08:20 6.19992 81.64019 11409 ft 317 kts 281°
2026-04-28 08:20 6.20440 81.61894 11337 ft 305 kts 281°
2026-04-28 08:21 6.20871 81.59848 11252 ft 294 kts 281°
2026-04-28 08:21 6.21287 81.57873 11146 ft 284 kts 281°
2026-04-28 08:21 6.21689 81.55962 11020 ft 275 kts 281°
2026-04-28 08:21 6.22084 81.54085 10740 ft 273 kts 280°
2026-04-28 08:22 6.22470 81.52248 10487 ft 270 kts 281°
2026-04-28 08:22 6.22857 81.50406 10198 ft 268 kts 280°
2026-04-28 08:22 6.23242 81.48571 9891 ft 268 kts 280°
2026-04-28 08:22 6.23627 81.46737 9584 ft 268 kts 280°
2026-04-28 08:23 6.24009 81.44916 9281 ft 266 kts 280°
2026-04-28 08:23 6.24390 81.43102 9001 ft 264 kts 281°
2026-04-28 08:23 6.24766 81.41312 8726 ft 260 kts 280°
2026-04-28 08:23 6.25138 81.39537 8449 ft 259 kts 281°
2026-04-28 08:24 6.25510 81.37767 8177 ft 258 kts 280°
2026-04-28 08:24 6.25879 81.36008 7914 ft 257 kts 279°
2026-04-28 08:24 6.26244 81.34261 7672 ft 254 kts 280°
2026-04-28 08:24 6.26604 81.32549 7409 ft 253 kts 280°
2026-04-28 08:25 6.26968 81.30822 7140 ft 251 kts 280°
2026-04-28 08:25 6.27322 81.29137 7088 ft 243 kts 280°
2026-04-28 08:25 6.27670 81.27469 7023 ft 247 kts 280°
2026-04-28 08:26 6.28391 81.24013 7004 ft 254 kts 281°
2026-04-28 08:26 6.28755 81.22277 7000 ft 252 kts 281°
2026-04-28 08:26 6.29117 81.20562 6998 ft 250 kts 280°
2026-04-28 08:26 6.29476 81.18849 7004 ft 249 kts 281°
2026-04-28 08:27 6.29834 81.17146 6997 ft 249 kts 280°
2026-04-28 08:27 6.30204 81.15446 6999 ft 249 kts 283°
2026-04-28 08:27 6.30817 81.13816 7000 ft 252 kts 295°
2026-04-28 08:27 6.31707 81.12278 6952 ft 256 kts 301°
2026-04-28 08:28 6.32682 81.10801 6822 ft 257 kts 302°
2026-04-28 08:28 6.33682 81.09324 6733 ft 255 kts 302°
2026-04-28 08:28 6.34676 81.07847 6597 ft 255 kts 302°
2026-04-28 08:28 6.35667 81.06371 6481 ft 254 kts 302°
2026-04-28 08:29 6.36649 81.04905 6376 ft 253 kts 302°
2026-04-28 08:29 6.37622 81.03440 6275 ft 251 kts 302°
2026-04-28 08:29 6.38589 81.01984 6186 ft 250 kts 302°
2026-04-28 08:29 6.39548 81.00536 6114 ft 247 kts 302°
2026-04-28 08:30 6.40460 80.99157 6053 ft 245 kts 302°
2026-04-28 08:30 6.41407 80.97722 6017 ft 246 kts 302°
2026-04-28 08:30 6.42352 80.96290 6002 ft 246 kts 302°
2026-04-28 08:30 6.43293 80.94861 6009 ft 244 kts 301°
2026-04-28 08:31 6.44230 80.93440 6007 ft 244 kts 302°
2026-04-28 08:31 6.45169 80.92016 6010 ft 245 kts 302°
2026-04-28 08:31 6.46111 80.90581 6021 ft 246 kts 303°
2026-04-28 08:31 6.47054 80.89147 6015 ft 246 kts 303°
2026-04-28 08:32 6.47996 80.87716 6014 ft 245 kts 303°
2026-04-28 08:32 6.48939 80.86284 6019 ft 245 kts 303°
2026-04-28 08:32 6.49866 80.84875 6019 ft 245 kts 303°
2026-04-28 08:32 6.50806 80.83446 6021 ft 245 kts 303°
2026-04-28 08:33 6.51748 80.82014 6028 ft 246 kts 303°
2026-04-28 08:33 6.52692 80.80580 6030 ft 246 kts 303°
2026-04-28 08:33 6.53639 80.79139 6032 ft 247 kts 303°
2026-04-28 08:33 6.54588 80.77696 6025 ft 248 kts 303°
2026-04-28 08:34 6.55540 80.76248 6023 ft 248 kts 303°
2026-04-28 08:34 6.56494 80.74797 6032 ft 249 kts 303°
2026-04-28 08:34 6.57450 80.73342 6026 ft 249 kts 303°
2026-04-28 08:34 6.58405 80.71888 6026 ft 249 kts 303°
2026-04-28 08:35 6.59361 80.70435 6022 ft 249 kts 303°
2026-04-28 08:35 6.60312 80.68986 6028 ft 248 kts 303°
2026-04-28 08:35 6.61263 80.67539 6045 ft 248 kts 303°
2026-04-28 08:35 6.62214 80.66091 6040 ft 248 kts 303°
2026-04-28 08:36 6.63165 80.64644 6040 ft 247 kts 303°
2026-04-28 08:36 6.64097 80.63223 6042 ft 246 kts 303°
2026-04-28 08:36 6.65042 80.61784 6047 ft 246 kts 303°
2026-04-28 08:36 6.65986 80.60347 6030 ft 246 kts 303°
2026-04-28 08:37 6.66927 80.58912 6012 ft 246 kts 303°
2026-04-28 08:37 6.67866 80.57480 6035 ft 245 kts 303°
2026-04-28 08:37 6.68804 80.56049 6030 ft 245 kts 303°
2026-04-28 08:37 6.69744 80.54618 6035 ft 246 kts 303°
2026-04-28 08:38 6.70689 80.53179 6026 ft 249 kts 303°
2026-04-28 08:38 6.71657 80.51705 6032 ft 255 kts 303°
2026-04-28 08:38 6.72648 80.50201 6033 ft 259 kts 303°
2026-04-28 08:38 6.73719 80.48741 6029 ft 259 kts 308°
2026-04-28 08:39 6.74843 80.47346 6034 ft 256 kts 309°
2026-04-28 08:39 6.75954 80.45971 6001 ft 251 kts 309°
2026-04-28 08:39 6.77035 80.44627 6017 ft 249 kts 309°
2026-04-28 08:39 6.78120 80.43265 6027 ft 250 kts 308°
2026-04-28 08:40 6.79209 80.41890 6021 ft 252 kts 308°
2026-04-28 08:40 6.80308 80.40507 6026 ft 254 kts 308°
2026-04-28 08:40 6.81409 80.39108 6028 ft 255 kts 307°
2026-04-28 08:40 6.82486 80.37701 5921 ft 254 kts 307°
2026-04-28 08:41 6.83554 80.36294 5692 ft 253 kts 306°
2026-04-28 08:41 6.84618 80.34897 5444 ft 250 kts 307°
2026-04-28 08:41 6.85667 80.33521 5210 ft 247 kts 307°
2026-04-28 08:41 6.86715 80.32148 4946 ft 248 kts 306°
2026-04-28 08:42 6.87756 80.30780 4702 ft 243 kts 307°
2026-04-28 08:42 6.88936 80.29588 4343 ft 244 kts 331°
2026-04-28 08:42 6.90578 80.29152 3985 ft 244 kts 355°
2026-04-28 08:42 6.92278 80.29027 3643 ft 246 kts 356°
2026-04-28 08:43 6.93985 80.28899 3519 ft 246 kts 355°
2026-04-28 08:43 6.95698 80.28768 3491 ft 248 kts 355°
2026-04-28 08:43 6.97404 80.28637 3501 ft 244 kts 355°
2026-04-28 08:43 6.99095 80.28502 3520 ft 243 kts 355°
2026-04-28 08:44 7.00780 80.28370 3487 ft 244 kts 355°
2026-04-28 08:44 7.02455 80.28251 3484 ft 244 kts 355°
2026-04-28 08:44 7.04166 80.28124 3508 ft 249 kts 355°
2026-04-28 08:44 7.05896 80.27975 3468 ft 249 kts 355°
2026-04-28 08:45 7.07516 80.27570 3456 ft 233 kts 328°
2026-04-28 08:45 7.08722 80.26573 3476 ft 220 kts 309°
2026-04-28 08:45 7.09684 80.25371 3522 ft 222 kts 306°
2026-04-28 08:45 7.10625 80.24129 3468 ft 224 kts 304°
2026-04-28 08:46 7.11555 80.22883 3375 ft 219 kts 305°
2026-04-28 08:46 7.12460 80.21688 3331 ft 211 kts 306°
2026-04-28 08:46 7.13044 80.20916 3301 ft 207 kts 307°
2026-04-28 08:46 7.13906 80.19780 3266 ft 201 kts 305°
2026-04-28 08:47 7.15021 80.18322 3176 ft 195 kts 306°
2026-04-28 08:47 7.15842 80.17255 3078 ft 191 kts 305°
2026-04-28 08:47 7.16655 80.16196 2978 ft 192 kts 304°
2026-04-28 08:47 7.17476 80.15120 2832 ft 195 kts 304°
2026-04-28 08:48 7.18038 80.14382 2708 ft 198 kts 305°
2026-04-28 08:48 7.19145 80.12943 2644 ft 194 kts 306°
2026-04-28 08:48 7.19691 80.12234 2584 ft 194 kts 304°
2026-04-28 08:48 7.20517 80.11158 2516 ft 195 kts 306°
2026-04-28 08:49 7.21345 80.10078 2479 ft 194 kts 306°
2026-04-28 08:49 7.22167 80.09005 2410 ft 194 kts 304°
2026-04-28 08:49 7.22993 80.07931 2333 ft 193 kts 304°
2026-04-28 08:49 7.23812 80.06865 2225 ft 190 kts 306°
2026-04-28 08:50 7.24600 80.05842 2117 ft 178 kts 306°
2026-04-28 08:50 7.25337 80.04884 2024 ft 170 kts 305°
2026-04-28 08:50 7.26056 80.03943 2001 ft 169 kts 304°
2026-04-28 08:50 7.26778 80.03004 2010 ft 171 kts 306°
2026-04-28 08:51 7.27510 80.02053 2001 ft 172 kts 305°
2026-04-28 08:51 7.28239 80.01105 1820 ft 170 kts 303°
2026-04-28 08:51 7.28948 80.00178 1650 ft 163 kts 303°
2026-04-28 08:51 7.29602 79.99330 1633 ft 155 kts 302°
2026-04-28 08:52 7.29867 79.98365 1612 ft 141 kts 254°
2026-04-28 08:52 7.29363 79.97514 1636 ft 143 kts 230°
2026-04-28 08:52 7.28697 79.96777 1579 ft 139 kts 225°
2026-04-28 08:52 7.27991 79.96092 1618 ft 143 kts 225°
2026-04-28 08:53 7.27258 79.95418 1601 ft 143 kts 220°
2026-04-28 08:53 7.26481 79.94793 1624 ft 141 kts 219°
2026-04-28 08:53 7.25704 79.94191 1572 ft 141 kts 216°
2026-04-28 08:53 7.24926 79.93595 1379 ft 138 kts 217°
2026-04-28 08:54 7.24159 79.93007 1208 ft 142 kts 218°
2026-04-28 08:54 7.23394 79.92421 1018 ft 137 kts 219°
2026-04-28 08:54 7.22636 79.91840 859 ft 135 kts 218°
2026-04-28 08:54 7.21901 79.91276 668 ft 135 kts 219°
2026-04-28 08:55 7.21162 79.90712 529 ft 130 kts 219°
2026-04-28 08:55 7.20436 79.90153 337 ft 142 kts 218°
2026-04-28 08:55 7.19639 79.89543 156 ft 144 kts 219°